Temp
-18 -18 -18 -17 -17 -18 -18 -18 -19 -20 -20 -20 -21 -21 -22 -22 -22 -21 -21 -20 -19 -19 -20 -19 -19 -19 -19 -20 -20 -19 -20 -20 -20 -20 -18 -18 -18 -17 -17 -16 -16 -16 -15
-18 -17 -17 -17 -18 -18 -19 -20 -20 -21 -23 -24 -24 -24 -24 -24 -24 -24 -24 -23 -21 -21 -20 -20 -19 -20 -19 -20 -20 -20 -20 -19 -20 -20 -19 -18 -18 -18 -17 -16 -16 -16 -15
-17 -17 -18 -18 -18 -19 -20 -22 -24 -24 -24 -24 -24 -24 -24 -24 -25 -25 -25 -25 -24 -23 -21 -20 -20 -20 -20 -19 -20 -20 -19 -19 -20 -20 -19 -19 -18 -18 -17 -16 -16 -16 -16
-17 -18 -18 -18 -20 -21 -23 -24 -24 -24 -24 -24 -24 -24 -24 -24 -25 -25 -25 -25 -25 -25 -24 -21 -20 -20 -20 -20 -20 -20 -19 -19 -20 -20 -20 -19 -18 -18 -17 -16 -16 -16 -16
-18 -18 -18 -19 -21 -23 -24 -24 -24 -24 -24 -24 -23 -24 -24 -25 -27 -27 -26 -26 -26 -26 -25 -24 -21 -20 -20 -20 -20 -20 -19 -19 -19 -20 -20 -19 -18 -18 -18 -17 -16 -16 -16
-18 -18 -19 -20 -22 -24 -24 -24 -24 -24 -24 -24 -24 -24 -25 -26 -28 -28 -28 -28 -27 -27 -25 -25 -23 -20 -20 -20 -20 -19 -20 -20 -19 -20 -20 -19 -19 -18 -18 -17 -17 -16 -16
-18 -18 -19 -21 -22 -24 -24 -25 -24 -24 -24 -24 -24 -25 -26 -28 -28 -29 -29 -28 -28 -27 -26 -25 -24 -21 -20 -19 -19 -20 -19 -20 -20 -20 -20 -20 -19 -18 -18 -17 -16 -16 -16
-18 -18 -20 -21 -23 -24 -24 -25 -25 -24 -24 -24 -25 -25 -27 -29 -29 -29 -29 -28 -28 -27 -27 -26 -24 -22 -20 -19 -19 -20 -20 -20 -20 -20 -20 -20 -19 -18 -18 -17 -16 -16 -16
-18 -19 -20 -21 -23 -24 -24 -25 -25 -24 -24 -25 -25 -26 -29 -29 -30 -29 -29 -28 -28 -27 -27 -26 -24 -22 -20 -20 -19 -20 -20 -20 -20 -20 -20 -19 -19 -18 -18 -17 -17 -16 -15
-18 -19 -20 -22 -23 -24 -24 -24 -24 -25 -25 -25 -26 -27 -29 -30 -30 -29 -28 -28 -27 -27 -26 -26 -24 -22 -20 -20 -20 -20 -20 -20 -20 -21 -20 -19 -19 -18 -18 -17 -16 -15 -15
-18 -19 -20 -21 -22 -24 -24 -24 -24 -24 -25 -25 -26 -28 -30 -30 -29 -28 -27 -27 -27 -26 -25 -25 -23 -22 -21 -20 -20 -20 -20 -20 -21 -20 -20 -19 -19 -18 -18 -17 -16 -16 -16
-18 -19 -19 -21 -22 -24 -24 -24 -24 -24 -24 -25 -27 -29 -30 -29 -28 -27 -27 -26 -26 -26 -24 -24 -22 -21 -21 -20 -20 -20 -20 -20 -20 -20 -19 -19 -19 -18 -17 -16 -16 -16 -16
-18 -19 -19 -20 -21 -23 -24 -24 -24 -24 -24 -25 -26 -28 -29 -28 -28 -27 -26 -26 -26 -25 -25 -23 -22 -21 -21 -21 -20 -20 -20 -21 -20 -19 -19 -19 -18 -18 -17 -16 -16 -16 -16
-18 -18 -19 -20 -21 -22 -23 -23 -24 -24 -24 -24 -25 -28 -28 -27 -26 -26 -26 -25 -25 -25 -24 -23 -22 -21 -21 -21 -21 -21 -21 -20 -19 -19 -19 -18 -18 -17 -17 -16 -16 -16 -16
-18 -18 -19 -19 -20 -21 -22 -22 -23 -23 -24 -24 -25 -26 -27 -26 -26 -25 -25 -25 -25 -24 -24 -23 -22 -22 -21 -21 -21 -21 -20 -19 -19 -19 -18 -18 -18 -17 -16 -16 -16 -16 -16
-18 -18 -18 -19 -19 -19 -20 -21 -22 -23 -23 -24 -24 -24 -25 -25 -25 -25 -24 -24 -23 -23 -23 -22 -22 -22 -22 -21 -20 -20 -19 -19 -19 -18 -18 -18 -17 -17 -17 -16 -16 -16 -16
-18 -18 -18 -19 -19 -18 -19 -20 -21 -22 -22 -23 -23 -23 -24 -24 -24 -23 -23 -23 -23 -23 -22 -22 -21 -21 -20 -20 -19 -19 -19 -18 -18 -18 -18 -18 -17 -17 -16 -16 -16 -17 -16
-19 -18 -18 -18 -18 -18 -18 -19 -20 -20 -21 -21 -21 -21 -21 -22 -22 -22 -22 -21 -21 -21 -21 -20 -20 -20 -19 -19 -19 -18 -18 -18 -18 -18 -18 -17 -17 -16 -16 -16 -16 -16 -16
-18 -19 -18 -17 -18 -18 -18 -18 -18 -19 -20 -20 -20 -20 -20 -20 -20 -20 -20 -20 -20 -20 -19 -19 -19 -19 -18 -18 -18 -18 -18 -18 -17 -17 -17 -17 -17 -16 -16 -16 -16 -16 -16
-18 -18 -19 -18 -18 -18 -18 -18 -18 -18 -18 -18 -19 -19 -19 -19 -19 -19 -19 -19 -19 -19 -18 -18 -18 -18 -18 -18 -18 -18 -17 -17 -17 -16 -16 -16 -16 -16 -16 -16 -16 -16 -16
-18 -18 -18 -18 -18 -18 -18 -18 -18 -19 -18 -18 -18 -18 -18 -18 -18 -18 -18 -18 -18 -18 -18 -18 -18 -18 -18 -18 -18 -18 -17 -17 -17 -16 -16 -16 -16 -16 -16 -16 -16 -16 -16
-17 -17 -17 -18 -18 -18 -18 -17 -18 -18 -18 -18 -17 -17 -17 -17 -17 -17 -18 -18 -18 -18 -17 -17 -17 -17 -18 -18 -18 -17 -17 -17 -17 -17 -17 -16 -16 -16 -16 -16 -16 -16 -16
-17 -17 -17 -17 -17 -18 -18 -18 -18 -17 -17 -18 -18 -18 -17 -17 -17 -17 -17 -17 -17 -17 -17 -17 -17 -17 -17 -17 -17 -17 -16 -17 -17 -16 -16 -16 -16 -16 -16 -16 -16 -16 -16
-17 -17 -17 -17 -17 -17 -17 -18 -17 -18 -18 -17 -17 -17 -17 -17 -17 -17 -16 -16 -16 -17 -17 -17 -17 -17 -17 -17 -17 -17 -16 -16 -16 -16 -16 -16 -16 -16 -16 -16 -16 -16 -16
-17 -17 -17 -17 -17 -17 -17 -17 -17 -17 -17 -17 -17 -18 -17 -17 -17 -17 -17 -17 -17 -16 -16 -16 -17 -17 -17 -16 -16 -16 -16 -16 -16 -16 -16 -16 -16 -16 -16 -16 -16 -16 -17
-17 -17 -17 -17 -17 -17 -17 -17 -17 -17 -17 -17 -17 -17 -17 -17 -17 -17 -17 -17 -17 -17 -17 -17 -17 -16 -16 -16 -17 -17 -16 -16 -16 -16 -16 -16 -16 -16 -16 -17 -17 -17 -17
Height
5588 5578 5567 5558 5548 5537 5526 5516 5506 5497 5489 5481 5474 5469 5466 5464 5464 5466 5469 5472 5478 5485 5496 5510 5523 5536 5548 5559 5568 5577 5586 5593 5599 5610 5621 5634 5646 5657 5669 5681 5691 5702 5712
5581 5571 5561 5551 5540 5528 5515 5503 5492 5481 5473 5467 5461 5456 5452 5450 5448 5448 5448 5451 5458 5467 5476 5490 5507 5521 5535 5548 5560 5570 5580 5588 5597 5606 5619 5631 5642 5654 5666 5677 5688 5698 5709
5577 5567 5557 5545 5531 5517 5503 5491 5480 5471 5463 5456 5450 5444 5439 5436 5433 5432 5433 5436 5439 5446 5458 5471 5488 5505 5522 5537 5551 5563 5573 5584 5596 5604 5615 5626 5639 5652 5664 5675 5687 5698 5707
5576 5565 5553 5539 5523 5508 5495 5484 5474 5464 5455 5447 5439 5432 5425 5419 5414 5412 5414 5418 5423 5431 5440 5454 5470 5489 5509 5526 5542 5555 5568 5581 5593 5602 5612 5624 5638 5650 5662 5673 5685 5695 5706
5575 5563 5549 5533 5516 5501 5490 5479 5468 5457 5448 5438 5430 5421 5411 5401 5393 5394 5397 5402 5409 5418 5426 5438 5455 5474 5494 5515 5533 5548 5563 5577 5590 5601 5611 5623 5635 5648 5660 5672 5682 5693 5704
5575 5561 5545 5529 5512 5499 5488 5476 5464 5453 5441 5431 5421 5410 5399 5388 5383 5385 5389 5393 5400 5408 5417 5427 5442 5461 5482 5504 5525 5542 5558 5574 5587 5599 5609 5622 5635 5647 5659 5671 5683 5694 5704
5575 5560 5544 5527 5511 5499 5487 5474 5461 5449 5438 5426 5414 5402 5389 5380 5376 5379 5383 5389 5395 5402 5410 5418 5433 5452 5473 5495 5518 5539 5554 5572 5586 5599 5609 5621 5634 5648 5659 5670 5683 5695 5709
5576 5561 5545 5527 5512 5500 5487 5474 5460 5448 5435 5423 5409 5395 5382 5375 5372 5375 5380 5386 5392 5398 5405 5411 5426 5448 5470 5491 5514 5536 5554 5570 5585 5596 5607 5621 5635 5649 5661 5673 5686 5698 5710
5579 5563 5546 5530 5516 5502 5489 5474 5460 5448 5435 5422 5407 5392 5380 5374 5371 5375 5381 5388 5393 5397 5401 5407 5425 5449 5470 5491 5513 5535 5553 5570 5584 5597 5611 5624 5639 5652 5663 5677 5689 5702 5713
5583 5568 5550 5535 5520 5507 5492 5477 5463 5452 5438 5423 5408 5393 5382 5379 5378 5383 5389 5394 5395 5395 5400 5412 5432 5454 5475 5495 5516 5537 5556 5573 5587 5601 5615 5630 5643 5655 5667 5680 5694 5706 5716
5587 5572 5556 5542 5527 5512 5498 5482 5469 5459 5445 5429 5412 5395 5388 5387 5390 5396 5402 5404 5403 5404 5411 5424 5443 5463 5482 5502 5523 5544 5561 5576 5591 5604 5619 5633 5647 5660 5673 5686 5697 5707 5718
5594 5580 5565 5550 5535 5520 5507 5492 5479 5469 5456 5441 5423 5408 5399 5399 5406 5413 5417 5419 5420 5423 5429 5441 5458 5476 5493 5513 5532 5551 5568 5583 5596 5611 5626 5640 5653 5666 5680 5691 5702 5715 5724
5602 5590 5575 5560 5545 5530 5518 5504 5492 5481 5470 5457 5440 5428 5421 5421 5427 5432 5436 5440 5442 5446 5453 5465 5480 5495 5511 5528 5546 5563 5579 5593 5608 5622 5635 5648 5661 5673 5686 5698 5710 5722 5731
5611 5600 5587 5572 5558 5544 5533 5520 5507 5497 5485 5476 5462 5451 5445 5446 5451 5456 5460 5464 5466 5472 5478 5488 5500 5513 5529 5546 5562 5576 5589 5604 5618 5632 5646 5659 5670 5681 5693 5704 5717 5725 5734
5622 5611 5600 5586 5573 5561 5550 5539 5527 5515 5505 5497 5488 5477 5471 5473 5477 5481 5485 5489 5492 5497 5505 5513 5524 5537 5550 5564 5576 5589 5603 5618 5631 5643 5655 5667 5679 5691 5701 5712 5721 5727 5738
5634 5625 5614 5604 5592 5581 5570 5559 5548 5537 5528 5520 5512 5506 5502 5501 5501 5503 5507 5512 5517 5523 5529 5537 5546 5557 5567 5580 5593 5606 5619 5631 5643 5655 5666 5677 5689 5700 5710 5720 5727 5734 5741
5646 5638 5629 5620 5610 5600 5590 5581 5572 5561 5553 5546 5539 5533 5529 5527 5526 5528 5532 5536 5540 5546 5552 5559 5568 5577 5589 5600 5613 5624 5636 5647 5657 5668 5679 5689 5699 5709 5719 5726 5731 5739 5745
5660 5651 5644 5637 5629 5620 5612 5603 5596 5588 5580 5574 5567 5563 5557 5554 5553 5554 5556 5560 5565 5570 5577 5585 5593 5602 5612 5623 5632 5642 5652 5661 5671 5680 5690 5700 5709 5718 5724 5731 5737 5743 5749
5674 5665 5656 5649 5644 5639 5632 5625 5618 5613 5607 5601 5595 5591 5587 5585 5583 5583 5584 5587 5591 5596 5602 5609 5616 5624 5633 5642 5650 5659 5668 5676 5684 5692 5701 5709 5717 5724 5730 5736 5743 5748 5752
5687 5679 5671 5664 5659 5654 5650 5644 5640 5635 5631 5625 5621 5619 5616 5613 5612 5612 5612 5614 5617 5621 5626 5632 5638 5646 5653 5660 5667 5674 5681 5688 5695 5702 5710 5716 5722 5728 5734 5740 5746 5750 5755
5698 5693 5687 5681 5675 5668 5664 5661 5658 5654 5650 5647 5644 5641 5639 5638 5637 5637 5637 5638 5640 5644 5648 5652 5658 5662 5668 5674 5681 5687 5693 5700 5706 5712 5718 5724 5730 5735 5741 5745 5749 5753 5756
5709 5704 5699 5695 5690 5684 5678 5675 5673 5671 5668 5665 5662 5660 5658 5658 5657 5657 5658 5660 5662 5665 5668 5672 5676 5679 5685 5689 5694 5699 5705 5710 5716 5722 5727 5732 5737 5741 5744 5748 5752 5755 5757
5719 5715 5711 5706 5703 5699 5695 5690 5686 5685 5682 5680 5678 5676 5675 5674 5675 5676 5677 5678 5680 5682 5684 5688 5691 5695 5699 5703 5707 5711 5716 5721 5726 5730 5734 5737 5741 5745 5748 5752 5754 5755 5757
5726 5723 5720 5717 5713 5710 5707 5704 5701 5698 5695 5692 5691 5689 5689 5689 5689 5689 5690 5691 5694 5696 5698 5701 5704 5706 5710 5713 5717 5721 5724 5727 5730 5734 5738 5742 5745 5747 5749 5750 5751 5753 5755
5731 5729 5727 5724 5722 5719 5717 5714 5712 5710 5708 5705 5703 5701 5699 5698 5700 5701 5702 5703 5704 5706 5708 5711 5713 5715 5718 5721 5723 5726 5729 5731 5734 5737 5740 5742 5744 5746 5748 5749 5751 5752 5753
5734 5733 5731 5730 5728 5726 5724 5722 5720 5718 5717 5715 5714 5713 5712 5712 5712 5712 5712 5711 5712 5714 5715 5717 5719 5721 5724 5726 5728 5730 5733 5735 5737 5739 5740 5742 5743 5744 5746 5747 5748 5749 5750
Wind_Speed
49 45 40 38 39 42 45 46 46 45 49 52 51 49 41 40 42 48 49 48 49 54 60 58 54 52 51 50 45 39 40 35 34 48 52 49 47 46 47 48 50 51 53
37 36 38 39 40 42 45 50 52 47 40 34 31 31 31 28 26 26 32 43 54 51 51 62 58 57 54 52 48 43 43 37 35 38 49 49 47 46 47 50 51 53 53
37 36 38 40 50 49 48 46 39 34 32 26 33 33 33 34 38 39 36 32 39 52 58 55 62 60 59 55 49 47 46 40 37 35 50 51 48 46 47 50 50 51 51
37 37 45 49 48 47 43 35 33 31 31 34 30 29 33 35 37 37 37 35 33 40 51 59 61 65 64 59 52 53 52 45 40 37 48 52 48 46 48 50 51 52 51
39 44 49 50 45 39 34 37 37 35 31 30 30 34 32 34 28 28 29 31 32 39 34 57 61 64 68 65 57 56 54 51 45 39 43 52 51 47 48 51 53 52 50
44 50 52 49 44 38 38 38 36 33 30 30 31 30 31 27 14 19 23 26 28 35 37 40 60 64 66 67 67 58 55 54 49 43 44 52 52 48 50 52 53 52 49
50 53 51 48 46 40 39 37 35 31 31 33 32 30 28 18 10 22 23 25 28 30 33 36 58 62 64 70 72 63 56 56 53 47 45 54 52 49 50 54 54 52 45
53 53 49 49 44 41 39 38 35 33 32 34 34 33 25 10 6 19 19 20 23 24 28 31 60 61 61 68 70 66 59 59 54 48 50 56 53 50 52 55 54 49 45
55 53 50 50 43 46 47 43 37 37 35 34 38 34 21 10 10 16 20 22 17 19 22 37 65 62 61 67 70 66 66 61 55 47 55 57 53 52 54 54 52 46 44
49 61 53 49 45 47 49 48 37 42 39 40 39 34 18 15 22 26 26 21 16 20 34 47 66 62 62 69 71 70 64 60 55 50 58 56 52 53 53 51 48 46 49
51 60 55 51 50 50 50 50 39 42 46 47 43 34 24 23 32 32 32 29 29 35 46 50 66 62 63 65 73 69 63 60 56 55 60 57 54 53 51 51 50 52 35
47 58 59 53 53 52 52 53 41 40 47 50 48 41 34 36 39 39 39 40 41 47 53 53 62 61 64 71 69 68 63 57 57 63 60 56 54 52 51 51 49 47 40
46 53 59 53 56 56 54 57 48 43 45 51 51 51 45 47 45 47 50 47 48 52 56 57 60 61 67 67 69 65 58 55 62 61 57 55 54 53 51 50 53 44 41
45 48 57 55 55 58 58 61 56 49 47 51 55 53 53 47 50 52 54 54 57 60 62 60 61 64 67 67 65 59 59 64 63 58 55 55 55 53 52 53 49 41 43
45 46 56 62 59 61 60 64 62 53 49 50 57 58 58 57 53 49 49 52 55 56 57 60 63 65 64 61 58 62 67 64 59 57 56 56 54 58 56 52 41 39 44
45 42 57 61 65 64 62 62 63 59 52 51 54 59 60 52 46 42 41 52 52 52 54 56 57 59 60 62 67 68 65 60 58 57 56 52 53 49 45 39 38 41 30
54 40 53 59 64 64 62 60 57 57 57 55 55 56 58 59 60 61 57 54 53 54 57 59 61 65 68 69 66 62 59 57 55 55 53 52 49 49 41 37 36 35 29
55 55 43 40 54 59 58 56 54 54 54 54 57 58 60 61 59 57 59 60 62 63 64 66 67 66 64 62 60 58 55 53 52 51 49 50 51 45 40 41 31 32 23
44 51 51 46 40 50 54 54 52 50 50 52 53 55 58 60 62 62 61 61 64 64 64 63 62 60 59 57 55 53 52 51 49 48 46 47 45 41 36 31 30 29 22
42 46 53 49 49 41 46 48 49 48 48 49 50 51 52 53 54 55 56 57 57 58 58 58 57 55 53 52 51 50 49 49 48 47 46 40 36 34 30 28 31 25 20
37 40 42 45 51 42 40 41 42 46 45 47 45 46 46 45 45 46 47 47 48 49 49 50 50 50 49 47 46 45 44 44 44 43 42 41 38 36 32 28 28 24 20
33 35 36 37 40 41 48 37 36 38 40 43 44 44 44 42 41 41 41 42 42 42 42 42 41 41 44 43 41 40 39 37 41 38 34 32 29 31 29 23 22 21 19
29 30 31 32 33 34 36 41 41 28 31 33 36 37 38 39 40 39 37 35 35 34 34 36 39 39 37 36 35 36 34 31 28 27 27 25 21 21 26 20 19 16 17
23 24 26 27 28 29 29 30 31 33 39 26 25 25 30 28 30 34 34 33 31 30 28 28 30 31 29 26 26 25 27 24 23 24 24 23 21 20 20 20 16 17 17
17 18 19 20 22 23 24 25 24 26 27 28 28 34 36 30 27 24 24 24 25 26 25 25 27 27 23 23 22 23 25 25 26 24 20 16 15 17 20 20 19 15 15
13 14 14 14 15 16 18 19 20 21 20 21 22 22 22 24 24 26 28 30 24 20 18 17 17 16 16 15 18 19 18 19 19 18 17 15 15 16 17 16 15 13 12
Wind_Direction
321 326 322 323 318 314 309 304 303 300 297 298 300 298 292 285 273 261 248 244 240 235 229 227 222 220 215 209 204 203 201 202 202 198 198 199 199 196 193 189 190 191 192
337 336 334 330 324 321 319 316 314 313 313 309 302 291 286 282 264 268 254 245 237 232 227 222 220 214 210 206 202 200 199 201 200 194 192 196 197 193 189 187 188 189 191
351 344 339 332 332 332 327 327 329 322 319 307 306 303 289 281 270 265 264 256 239 231 221 221 212 210 205 202 200 202 196 194 189 191 189 192 194 192 188 186 187 188 190
350 346 343 343 339 336 337 338 336 333 324 318 315 313 307 294 275 262 254 246 237 228 222 210 208 206 203 201 199 196 192 188 185 187 189 188 190 192 187 184 186 188 191
354 353 352 350 349 350 353 348 342 336 331 326 318 319 314 306 275 254 241 231 225 217 215 209 204 201 200 196 192 187 190 184 185 186 185 185 188 189 186 184 186 187 191
1 359 357 359 2 359 354 350 346 346 343 341 338 329 320 317 256 210 207 211 213 209 210 204 199 196 196 196 189 186 189 183 183 184 183 184 185 186 184 183 185 188 189
9 4 3 8 8 360 354 356 355 355 357 356 348 339 330 325 236 200 211 212 210 201 203 206 195 189 190 189 187 186 186 182 181 182 182 182 181 183 181 181 183 187 186
13 8 9 12 9 3 0 357 0 3 1 2 359 350 346 347 197 195 203 189 185 192 193 196 186 180 179 184 185 185 183 178 176 183 181 178 178 179 178 179 182 184 180
17 14 15 14 12 8 8 7 10 11 12 7 4 4 6 30 116 150 151 158 167 176 187 174 175 171 173 174 174 176 176 174 177 179 175 174 175 177 176 178 181 176 177
11 17 20 16 15 12 11 15 24 21 22 17 13 13 33 63 113 126 129 131 134 154 155 155 166 164 166 164 165 169 168 172 171 172 171 171 172 175 174 174 173 173 175
15 20 24 23 22 21 19 23 30 30 27 25 25 29 67 85 116 120 116 104 109 126 138 148 159 158 157 162 165 166 167 168 168 167 168 169 171 170 170 169 171 168 169
18 21 25 27 28 27 27 29 35 34 31 34 40 50 74 104 112 111 105 104 108 116 129 139 152 150 152 154 162 165 165 166 165 164 164 166 167 165 166 167 167 164 163
23 26 26 32 34 33 34 35 38 41 42 41 51 61 78 108 109 105 99 106 110 115 120 132 143 144 147 153 157 159 158 158 160 161 162 163 161 163 165 164 159 159 154
32 30 33 38 38 39 38 41 41 47 51 50 55 70 80 106 105 100 99 97 104 110 121 131 139 142 145 149 152 152 152 155 156 157 158 158 159 161 165 164 153 149 154
37 37 41 44 45 45 42 43 45 50 56 58 62 72 84 99 104 101 98 97 101 106 113 121 131 137 142 147 148 148 149 151 152 154 156 158 159 149 146 154 159 156 154
41 40 48 47 49 49 47 44 44 52 56 62 69 76 83 105 106 101 102 105 107 111 119 127 133 137 139 141 142 143 146 149 151 152 155 155 159 161 159 153 158 158 156
49 43 42 49 50 51 52 54 54 55 59 64 71 80 87 92 99 102 107 107 112 115 118 122 127 131 134 136 139 141 145 147 149 152 150 153 155 153 154 156 149 167 164
41 50 46 39 50 54 56 60 62 67 71 74 79 82 86 91 95 100 104 107 110 113 118 122 124 127 131 134 138 141 144 146 147 148 149 149 151 148 150 157 163 162 153
42 41 49 51 53 58 60 63 68 70 72 77 80 85 90 95 100 104 108 111 113 116 119 122 125 128 132 134 136 138 141 145 146 146 146 148 150 154 154 154 163 170 169
46 46 50 59 57 62 65 68 69 71 72 74 76 80 85 91 96 102 107 111 115 118 121 124 127 129 130 133 136 139 141 142 146 148 151 154 153 155 163 171 173 171 169
48 51 51 51 59 68 71 71 74 75 75 74 72 75 79 83 90 96 103 109 115 120 124 127 129 131 133 134 135 138 140 140 143 146 153 158 160 161 163 168 176 175 185
45 49 52 53 52 51 58 75 77 81 83 84 83 82 82 84 87 92 98 104 110 117 121 124 126 128 130 132 135 141 142 145 147 147 147 152 161 171 178 183 185 199 201
42 45 49 51 54 56 58 57 69 84 84 86 87 90 89 94 94 93 94 99 106 112 116 122 128 128 127 128 134 143 149 151 155 163 168 170 171 171 176 194 206 208 206
35 38 43 48 53 55 59 61 62 65 67 87 95 87 87 94 103 109 108 107 107 109 112 118 126 127 127 130 136 145 154 157 156 161 168 177 187 196 200 201 202 216 223
24 31 36 40 45 52 57 60 62 64 68 73 70 69 78 103 101 111 113 113 116 119 123 130 141 147 148 149 151 154 160 165 168 172 179 187 198 205 211 222 223 226 237
6 18 29 36 38 42 48 53 59 63 66 68 71 73 76 84 87 86 88 94 109 119 127 132 139 149 155 158 161 162 163 173 183 191 198 214 215 213 213 222 227 237 246